Flag for Germany Weather past 2 weeks in Ludwigsfelde, Brandenburg, Germany

Now
70 °F

Sunny.


Feels Like: 70 °F
Forecast: 73 / 94 °F
Wind: 6 mph from Southeast

Location: Potsdam

Current Time: Jul 4, 2015 at 7:56:53 AM

Latest Report: Jul 4, 2015 at 7:00 AM


Visibility: 22 mi

Pressure: 30.16 "Hg

Humidity: 61%

Dew point: 56 °F

Location of LudwigsfeldeLocation

Historic Weather in Ludwigsfelde — Graph

°F

Ludwigsfelde temperature yesterday

Maximum temperature yesterday: 92 °F (at 4:00 PM)
Minimum temperature yesterday: 64 °F (at 6:00 AM)
Average temperature yesterday: 78 °F

Past Weeks' High & Low Weather Summary

 TemperatureHumidityPressure
High92 °F (Jul 3, 4:00 PM)100% (Jun 22, 9:00 PM)30.27 "Hg (Jun 22, 9:00 PM)
Low50 °F (Jun 23, 9:00 AM)27% (Jul 3, 4:00 PM)29.61 "Hg (Jun 23, 2:00 AM)
Average64 °F70%30.06 "Hg
* Reported Jun 19 7:00 AM — Jul 4 7:00 AM, Ludwigsfelde, Weather by CustomWeather, © 2015

Note: Actual official high and low records may vary slightly from our data, if they occured in-between our weather recording intervals... More about our weather records

Advertising

Ludwigsfelde weather history for previous 24 hours

 ConditionsComfort  
Time TempWeatherWind HumidityBarometerVisibility
7:00 AM
Sat, Jul 4
70 °FSunny.6 mph61%30.16 "Hg22 mi
6:00 AM69 °FSunny.6 mph58%30.16 "Hg19 mi
5:00 AM69 °FSunny.6 mph58%30.17 "Hg19 mi
4:00 AM70 °FClear.7 mph55%30.17 "Hg19 mi
3:00 AM71 °FPassing clouds.6 mph55%30.18 "Hg22 mi
2:00 AM72 °FPassing clouds.6 mph55%30.19 "Hg22 mi
1:00 AM74 °FPassing clouds.6 mph54%30.20 "Hg22 mi
12:00 AM76 °FPassing clouds.5 mph53%30.21 "Hg22 mi
11:00 PM
Fri, Jul 3
77 °FPassing clouds.5 mph55%30.21 "Hg22 mi
10:00 PM80 °FPassing clouds.5 mph50%30.20 "Hg22 mi
9:00 PM83 °FPartly sunny.3 mph47%30.19 "Hg22 mi
8:00 PM87 °FPartly sunny.3 mph38%30.19 "Hg22 mi
7:00 PM89 °FPartly sunny.3 mph33%30.19 "Hg22 mi
6:00 PM91 °FOvercast.3 mph32%30.19 "Hg22 mi
5:00 PM91 °FOvercast.2 mph35%30.19 "Hg19 mi
4:00 PM92 °FPartly sunny.2 mph27%30.20 "Hg18 mi
3:00 PM91 °FPartly sunny.3 mph28%30.20 "Hg19 mi
2:00 PM91 °FPassing clouds.6 mph28%30.21 "Hg22 mi
1:00 PM89 °FPassing clouds.3 mph29%30.24 "Hg22 mi
12:00 PM86 °FPassing clouds.3 mph35%30.26 "Hg22 mi
11:00 AM83 °FPassing clouds.2 mph38%30.27 "Hg22 mi
10:00 AM79 °FPassing clouds.3 mph46%30.26 "Hg22 mi
9:00 AM74 °FPassing clouds.5 mph54%30.25 "Hg25 mi
8:00 AM69 °FPassing clouds.6 mph64%30.25 "Hg25 mi
7:00 AM65 °FPassing clouds.5 mph69%30.26 "Hg28 mi
Weather by CustomWeather, © 2015

See weather overviewHow to use our weather pages